Content
SEND FEEDBACK

Daily
Averages
Monthly
Summary
Mexico

JAVIER ROJO GÓMEZ - ESTE, QUINTANA ROO


Home > North America > Mexico > Quintana Roo
Elevation: 7 feet     Latitude: 18 15N     Longitude: 088 38W

WEATHER
 
SELECT A DAY
Number of Records: 126,257;   Date Range: 1/1/95 - 12/20/14
 
SHARE

PRINT THIS DATA

[ ← Previous Day ]
WEATHER ALMANAC - MARCH 24, 2014
[ Next Day → ]
[ °C ]   °F
Weather ElementAverageHighLow
Temperature83.2 °F89 °F (11:50 am)79 °F (5:50 am)
Dewpoint73.9 °F77 °F (11:40 am)71 °F (5:50 pm)
Humidity71.3 %79 % (6:45 am)53 % (2:50 pm)
Barometer29.94 in30.00 in (8:50 am)29.88 in (3:42 pm)
Wind Speed10.3 mph17.3 mph (10:40 am)
Weather ElementAverage
Visibility6.6 mi
Wind DirectionESE (98.7 °)

Weather ElementTotal
Precipitation---
Cooling Degree Days19 (Base 65)
Growing Degree Days34 (Base 50)
Averaged from 23 records on March 24, 2014
WEATHER CONDITIONS BREAKOUT
WIND DIRECTION BREAKOUT
WEATHER BY HOUR - MARCH 24, 2014
[ °C ]   °F
Local TimeTemperatureDewpointHumidityBarometerVisibilityWind DirectionWind SpeedGust SpeedPrecipitationEventsConditions
5:50 AM79.0 °F72.0 °F75 %29.98 in6.0 miEast (90°)4.5 mphPartly Cloudy
6:45 AM80.6 °F73.4 °F79 %29.97 in7.0 miEast (90°)11.5 mphScattered Clouds
7:40 AM80.6 °F73.4 °F79 %29.98 in7.0 miEast (90°)9.2 mphScattered Clouds
8:50 AM85.0 °F73.0 °F59 %29.99 in6.0 miEast (90°)6.7 mphMostly Cloudy
8:50 AM84.2 °F75.2 °F74 %30.00 in7.0 miEast (100°)11.5 mphScattered Clouds
9:40 AM84.2 °F75.2 °F74 %30.00 in7.0 miESE (120°)9.2 mphScattered Clouds
10:40 AM84.2 °F75.2 °F74 %29.99 in7.0 miESE (120°)17.3 mphScattered Clouds
11:40 AM86.0 °F77.0 °F74 %29.98 in7.0 miEast (100°)11.5 mphScattered Clouds
11:50 AM89.0 °F75.0 °F54 %29.98 in6.0 miEast (90°)6.7 mphScattered Clouds
12:40 PM86.0 °F77.0 °F74 %29.93 in7.0 miEast (90°)11.5 mphScattered Clouds
1:40 PM86.0 °F77.0 °F74 %29.90 in7.0 miEast (100°)13.8 mphScattered Clouds
2:40 PM84.2 °F75.2 °F74 %29.90 in7.0 miEast (100°)17.3 mphScattered Clouds
2:50 PM89.0 °F74.0 °F53 %29.91 in6.0 miESE (110°)8.9 mphScattered Clouds
3:42 PM84.2 °F75.2 °F74 %29.88 in7.0 miEast (100°)17.3 mphScattered Clouds
4:42 PM84.2 °F75.2 °F74 %29.88 in7.0 miEast (100°)13.8 mphScattered Clouds
5:40 PM82.4 °F73.4 °F74 %29.90 in7.0 miESE (120°)17.3 mphScattered Clouds
5:50 PM83.0 °F71.0 °F60 %29.91 in6.0 miESE (110°)6.7 mphScattered Clouds
6:40 PM80.6 °F71.6 °F74 %29.91 in7.0 miESE (120°)13.8 mphScattered Clouds
7:40 PM80.6 °F71.6 °F74 %29.93 in7.0 miEast (100°)11.5 mphScattered Clouds
8:41 PM80.6 °F71.6 °F74 %29.95 in7.0 miCalmScattered Clouds
8:50 PM80.0 °F72.0 °F70 %29.96 in5.0 miESE (120°)4.5 mphScattered Clouds
9:41 PM80.6 °F71.6 °F74 %29.94 in7.0 miEast (90°)6.9 mphScattered Clouds
11:50 PM79.0 °F73.0 °F76 %29.95 in5.0 miESE (120°)4.5 mphScattered Clouds
Hourly data recorded from MMCM, located miles away from Javier Rojo Gómez - Este, Quintana Roo







STORIES FROM OUR PARTNERS